ES'HAIL 2

Last updated on Nov. 18, 2019, 4:21 a.m. UTC

1 43700U 18090A   19321.28864781  .00000152  00000-0  00000+0 0  9999
2 43700   0.0046 331.3982 0001856 294.8998 279.4985  1.00273654  3818
UTC
Height (km)
Latitude
Longitude
Inclination
Orbital Period
UTC large
Height (km)
Speed (km/s)
/
Latitude / Longitude
Inclination (degrees)
Orbital Period (minutes)
Azimuth
Elevation
Range (km)
Doppler Factor
iOS Compass Heading
iOS Angle

Next 30 passes for location: Hong Kong

Rise time Rise Azimuth (degrees) Set time Set Azimuth (degrees) Duration Max altitude (degrees)

No matching passes for this satellites